This demonstration page uses our WeatherBlox Daily Observations layout. Learn more.

39.01783, -85.05884

Hourly Observations for June 11, 2019

Temp ( °F °C ) Dew Point ( °F °C ) Humidity (%) Winds ( mph kmh ) Pressure ( in mb ) Visibility ( mi km ) Precip ( " mm )
12:52 am 00:52 Clear 58 14.4 47 8.3 67 67 NW 7 11 30.15 1021 10 16.09344 0 0
1:52 am 01:52 Clear 58 14.4 46 7.8 65 65 NNW 5 7 30.15 1021 10 16.09344 0 0
2:52 am 02:52 Clear 56 13.3 48 8.9 75 75 N 5 7 30.15 1021 10 16.09344 0 0
3:52 am 03:52 Clear 53 11.7 47 8.3 80 80 Calm 30.15 1021 10 16.09344 0 0
4:52 am 04:52 Clear 53 11.7 47 8.3 80 80 Calm 30.15 1021 10 16.09344 0 0
5:52 am 05:52 Clear 50 10 46 7.8 86 86 NNW 5 7 30.18 1022 10 16.09344 0 0
6:52 am 06:52 Sunny 55 12.8 47 8.3 74 74 NW 5 7 30.21 1023 10 16.09344 0 0
7:52 am 07:52 Mostly Sunny 59 15 50 10 72 72 Calm 30.21 1023 10 16.09344 0 0
8:52 am 08:52 Mostly Sunny 63 17.2 49 9.4 60 60 Calm 30.21 1023 10 16.09344 0 0
9:52 am 09:52 Partly Cloudy 68 20 46 7.8 45 45 ENE 5 7 30.24 1024 10 16.09344 0 0
10:52 am 10:52 Mostly Cloudy 69 20.6 43 6.1 39 39 NE 5 7 30.21 1023 10 16.09344 0 0
11:52 am 11:52 Mostly Cloudy 71 21.7 40 4.4 32 32 NE 8 13 30.21 1023 10 16.09344 0 0
12:52 pm 12:52 Partly Cloudy 71 21.7 41 5 34 34 Calm 30.21 1023 10 16.09344 0 0
1:52 pm 13:52 Partly Cloudy 74 23.3 42 5.6 32 32 E 7 11 30.18 1022 10 16.09344 0 0
2:52 pm 14:52 Mostly Cloudy 75 23.9 40 4.4 28 28 NE 9 15 30.15 1021 10 16.09344 0 0
3:52 pm 15:52 Partly Cloudy 76 24.4 43 6.1 31 31 ENE 8 13 30.12 1020 10 16.09344 0 0
4:52 pm 16:52 Partly Cloudy 76 24.4 45 7.2 33 33 SE 8 13 30.12 1020 10 16.09344 0 0
5:52 pm 17:52 Partly Cloudy 75 23.9 44 6.7 33 33 VRB 6 9 30.09 1019 10 16.09344 0 0
6:52 pm 18:52 Partly Cloudy 74 23.3 46 7.8 37 37 SSE 9 15 30.09 1019 10 16.09344 0 0
7:52 pm 19:52 Partly Cloudy 71 21.7 51 10.6 49 49 S 6 9 30.09 1019 10 16.09344 0 0
8:52 pm 20:52 Mostly Cloudy 67 19.4 49 9.4 53 53 S 5 7 30.09 1019 10 16.09344 0 0
9:52 pm 21:52 Mostly Cloudy 65 18.3 48 8.9 54 54 S 5 7 30.09 1019 10 16.09344 0 0
10:52 pm 22:52 Mostly Cloudy 64 17.8 47 8.3 54 54 S 3 6 30.09 1019 10 16.09344 0 0
11:52 pm 23:52 Mostly Cloudy 64 17.8 47 8.3 54 54 Calm 30.09 1019 10 16.09344 0 0

Powered by AerisWeather